| time (UTC) | temp F | wind direction | speed knots | gust knots | rain 1hr in | rain 24hr in | rain mn in | humidity % | barometer mb |
| 20260506153521 | 51 | 318 | 2.6 | 7.8 | 0.00 | 1.26 | 0.41 | 79 | 1018.8 |
| 20260506153022 | 51 | 339 | 0.0 | 9.6 | 0.00 | 1.26 | 0.41 | 80 | 1018.9 |
| 20260506152522 | 50 | 316 | 1.7 | 9.6 | 0.00 | 1.26 | 0.41 | 81 | 1018.9 |
| 20260506152021 | 50 | 321 | 1.7 | 9.6 | 0.03 | 1.26 | 0.41 | 80 | 1018.9 |
| 20260506151523 | 50 | 308 | 0.9 | 7.0 | 0.03 | 1.26 | 0.41 | 82 | 1018.9 |
| 20260506151021 | 50 | 309 | 1.7 | 6.1 | 0.03 | 1.26 | 0.41 | 81 | 1018.8 |
| 20260506150522 | 50 | 309 | 0.0 | 7.0 | 0.03 | 1.26 | 0.41 | 81 | 1018.5 |
| 20260506150020 | 50 | 359 | 1.7 | 7.0 | 0.03 | 1.26 | 0.41 | 83 | 1018.4 |
| 20260506145519 | 49 | 8 | 2.6 | 7.0 | 0.03 | 1.26 | 0.41 | 82 | 1018.4 |
| 20260506145019 | 49 | 356 | 1.7 | 7.0 | 0.03 | 1.26 | 0.41 | 81 | 1018.3 |
| 20260506144519 | 49 | 325 | 0.9 | 7.0 | 0.03 | 1.26 | 0.41 | 82 | 1018.2 |
| 20260506144019 | 49 | 305 | 0.0 | 7.0 | 0.03 | 1.26 | 0.41 | 84 | 1017.9 |
| 20260506143520 | 48 | 315 | 1.7 | 6.1 | 0.03 | 1.26 | 0.41 | 85 | 1017.7 |
| 20260506143019 | 48 | 3 | 2.6 | 7.0 | 0.03 | 1.26 | 0.41 | 86 | 1017.8 |
| 20260506142518 | 48 | 336 | 0.0 | 7.0 | 0.03 | 1.26 | 0.41 | 87 | 1017.8 |
| 20260506142019 | 47 | 305 | 0.0 | 7.0 | 0.00 | 1.23 | 0.38 | 85 | 1017.9 |
| 20260506141522 | 47 | 333 | 0.9 | 7.0 | 0.00 | 1.23 | 0.38 | 88 | 1017.9 |
| 20260506141018 | 47 | 302 | 0.0 | 0.0 | 0.00 | 1.23 | 0.38 | 89 | 1017.9 |
| 20260506140518 | 47 | 302 | 0.0 | 0.0 | 0.00 | 1.23 | 0.38 | 93 | 1017.7 |
| 20260506140019 | 46 | 302 | 0.0 | 0.0 | 0.00 | 1.23 | 0.38 | 95 | 1017.7 |
| 20260506135518 | 46 | 302 | 0.0 | 0.0 | 0.00 | 1.23 | 0.38 | 95 | 1017.7 |
| 20260506135019 | 46 | 302 | 0.0 | 0.0 | 0.00 | 1.23 | 0.38 | 95 | 1017.7 |
| 20260506134517 | 46 | 302 | 0.0 | 0.0 | 0.00 | 1.23 | 0.38 | 96 | 1017.8 |
| 20260506134017 | 45 | 302 | 0.0 | 0.0 | 0.00 | 1.23 | 0.38 | 97 | 1017.8 |
| 20260506133520 | 45 | 302 | 0.0 | 0.0 | 0.00 | 1.23 | 0.38 | 96 | 1017.8 |
| 20260506133017 | 45 | 302 | 0.0 | 0.0 | 0.00 | 1.23 | 0.38 | 97 | 1017.7 |
| 20260506132518 | 45 | 302 | 0.0 | 0.0 | 0.00 | 1.23 | 0.38 | 97 | 1017.7 |
| 20260506132019 | 45 | 302 | 0.0 | 0.0 | 0.00 | 1.23 | 0.38 | 97 | 1017.7 |
| 20260506131516 | 45 | 302 | 0.0 | 2.6 | 0.00 | 1.23 | 0.38 | 98 | 1017.7 |
| 20260506131019 | 45 | 302 | 0.0 | 2.6 | 0.00 | 1.23 | 0.38 | 98 | 1017.5 |
| 20260506130516 | 45 | 302 | 0.0 | 2.6 | 0.00 | 1.23 | 0.38 | 98 | 1017.4 |
| 20260506130016 | 44 | 284 | 0.0 | 0.0 | 0.00 | 1.23 | 0.38 | 98 | 1017.3 |
| 20260506125518 | 44 | 284 | 0.0 | 2.6 | 0.00 | 1.23 | 0.38 | 98 | 1017.2 |
| 20260506125015 | 44 | 284 | 0.0 | 2.6 | 0.00 | 1.23 | 0.38 | 98 | 1017.0 |
| 20260506124518 | 44 | 284 | 0.0 | 2.6 | 0.00 | 1.23 | 0.38 | 98 | 1017.3 |
| 20260506124015 | 44 | 312 | 0.0 | 6.1 | 0.00 | 1.23 | 0.38 | 98 | 1017.2 |
| 20260506123515 | 44 | 302 | 0.0 | 6.1 | 0.00 | 1.23 | 0.38 | 99 | 1016.9 |
| 20260506123017 | 44 | 15 | 2.6 | 6.1 | 0.00 | 1.23 | 0.38 | 99 | 1016.8 |
| 20260506122515 | 44 | 339 | 2.6 | 5.2 | 0.00 | 1.23 | 0.38 | 99 | 1016.8 |
| 20260506122015 | 44 | 338 | 1.7 | 5.2 | 0.00 | 1.23 | 0.38 | 99 | 1016.7 |
| 20260506121521 | 44 | 300 | 1.7 | 5.2 | 0.00 | 1.23 | 0.38 | 99 | 1016.7 |
| 20260506121014 | 44 | 316 | 0.9 | 3.5 | 0.00 | 1.23 | 0.38 | 99 | 1016.6 |
| 20260506120517 | 44 | 13 | 0.9 | 4.3 | 0.00 | 1.23 | 0.38 | 99 | 1016.5 |
| 20260506120014 | 44 | 293 | 3.5 | 4.3 | 0.00 | 1.23 | 0.38 | 99 | 1016.3 |
| 20260506115515 | 44 | 332 | 1.7 | 4.3 | 0.00 | 1.23 | 0.38 | 99 | 1016.4 |
| 20260506115015 | 44 | 304 | 0.0 | 1.7 | 0.00 | 1.23 | 0.38 | 99 | 1016.4 |
| 20260506114513 | 43 | 309 | 0.0 | 0.0 | 0.00 | 1.23 | 0.38 | 99 | 1016.3 |
| 20260506114016 | 43 | 309 | 0.0 | 0.0 | 0.00 | 1.23 | 0.38 | 99 | 1016.4 |
| 20260506113514 | 43 | 309 | 0.0 | 0.0 | 0.00 | 1.23 | 0.38 | 99 | 1016.4 |
| 20260506113013 | 43 | 309 | 0.0 | 2.6 | 0.00 | 1.23 | 0.38 | 99 | 1016.4 |
| 20260506112516 | 43 | 309 | 0.0 | 2.6 | 0.00 | 1.23 | 0.38 | 99 | 1016.6 |
| 20260506112013 | 43 | 309 | 0.0 | 2.6 | 0.00 | 1.23 | 0.38 | 99 | 1016.6 |
| 20260506111513 | 43 | 315 | 2.6 | 2.6 | 0.00 | 1.23 | 0.38 | 99 | 1016.6 |
| 20260506111015 | 43 | 318 | 0.0 | 1.7 | 0.00 | 1.23 | 0.38 | 99 | 1016.2 |
| 20260506110512 | 43 | 24 | 0.0 | 2.6 | 0.00 | 1.23 | 0.38 | 99 | 1015.7 |
| 20260506110013 | 43 | 24 | 0.0 | 2.6 | 0.00 | 1.23 | 0.38 | 99 | 1015.4 |
| 20260506105513 | 43 | 21 | 0.0 | 3.5 | 0.00 | 1.23 | 0.38 | 99 | 1015.4 |
| 20260506105012 | 44 | 335 | 0.0 | 4.3 | 0.00 | 1.23 | 0.38 | 99 | 1015.7 |
| 20260506104513 | 44 | 330 | 2.6 | 5.2 | 0.00 | 1.24 | 0.38 | 99 | 1016.0 |
| 20260506104014 | 44 | 312 | 0.9 | 6.1 | 0.00 | 1.24 | 0.38 | 99 | 1015.8 |
| 20260506103511 | 44 | 322 | 3.5 | 6.1 | 0.00 | 1.24 | 0.38 | 99 | 1015.6 |
| 20260506103011 | 44 | 335 | 2.6 | 6.1 | 0.00 | 1.24 | 0.38 | 99 | 1015.4 |
| 20260506102514 | 44 | 263 | 0.9 | 4.3 | 0.00 | 1.24 | 0.38 | 99 | 1015.6 |
| 20260506102011 | 44 | 340 | 0.9 | 5.2 | 0.01 | 1.24 | 0.38 | 99 | 1015.3 |
| 20260506101511 | 44 | 322 | 0.0 | 5.2 | 0.01 | 1.24 | 0.38 | 99 | 1015.4 |
| 20260506101013 | 44 | 14 | 1.7 | 5.2 | 0.01 | 1.24 | 0.38 | 99 | 1014.9 |
| 20260506100511 | 44 | 309 | 1.7 | 4.3 | 0.01 | 1.24 | 0.38 | 99 | 1015.0 |
| 20260506100010 | 44 | 11 | 0.0 | 5.2 | 0.01 | 1.24 | 0.38 | 99 | 1014.8 |
| 20260506095510 | 44 | 11 | 0.0 | 5.2 | 0.02 | 1.24 | 0.38 | 99 | 1014.6 |
| 20260506095011 | 44 | 314 | 0.0 | 5.2 | 0.02 | 1.24 | 0.38 | 99 | 1014.6 |
| 20260506094511 | 44 | 10 | 0.0 | 3.5 | 0.02 | 1.24 | 0.38 | 99 | 1014.5 |
| 20260506094010 | 44 | 23 | 0.9 | 3.5 | 0.02 | 1.24 | 0.38 | 99 | 1014.3 |
| 20260506093510 | 44 | 25 | 0.0 | 3.5 | 0.03 | 1.24 | 0.38 | 99 | 1014.5 |
| 20260506093012 | 44 | 346 | 0.0 | 3.5 | 0.03 | 1.24 | 0.38 | 99 | 1014.6 |
| 20260506092510 | 44 | 6 | 0.0 | 4.3 | 0.03 | 1.24 | 0.38 | 99 | 1014.7 |
| 20260506092026 | 44 | 6 | 0.0 | 6.1 | 0.02 | 1.23 | 0.37 | 99 | 1015.0 |
| 20260506091511 | 44 | 23 | 2.6 | 6.1 | 0.02 | 1.23 | 0.37 | 99 | 1015.2 |
| 20260506091009 | 44 | 4 | 3.5 | 6.1 | 0.02 | 1.23 | 0.37 | 99 | 1015.4 |
| 20260506090509 | 45 | 349 | 2.6 | 5.2 | 0.02 | 1.23 | 0.37 | 99 | 1015.3 |
| 20260506090011 | 45 | 336 | 1.7 | 4.3 | 0.03 | 1.23 | 0.37 | 99 | 1015.3 |
| 20260506085509 | 44 | 335 | 0.0 | 1.7 | 0.02 | 1.22 | 0.36 | 99 | 1015.3 |
| 20260506085008 | 45 | 335 | 0.0 | 1.7 | 0.02 | 1.22 | 0.36 | 99 | 1015.3 |
| 20260506084511 | 45 | 319 | 0.0 | 2.6 | 0.03 | 1.22 | 0.36 | 99 | 1015.3 |
| 20260506084016 | 45 | 11 | 0.0 | 5.2 | 0.03 | 1.22 | 0.36 | 99 | 1015.2 |
| 20260506083508 | 45 | 11 | 0.9 | 5.2 | 0.03 | 1.21 | 0.35 | 99 | 1015.3 |
| 20260506083009 | 45 | 335 | 1.7 | 5.2 | 0.03 | 1.21 | 0.35 | 100 | 1015.2 |
| 20260506082511 | 45 | 342 | 0.0 | 2.6 | 0.04 | 1.21 | 0.35 | 99 | 1015.1 |
| 20260506082008 | 45 | 30 | 0.0 | 2.6 | 0.05 | 1.21 | 0.35 | 100 | 1015.2 |
| 20260506081518 | 45 | 18 | 0.0 | 3.5 | 0.07 | 1.21 | 0.35 | 100 | 1015.0 |
| 20260506081008 | 44 | 17 | 1.7 | 3.5 | 0.08 | 1.21 | 0.35 | 100 | 1015.0 |
| 20260506080507 | 45 | 7 | 0.9 | 4.3 | 0.09 | 1.21 | 0.35 | 100 | 1015.0 |
| 20260506073511 | 44 | 8 | 2.6 | 6.1 | 0.11 | 1.18 | 0.32 | 99 | 1015.3 |
| 20260506073006 | 45 | 18 | 0.9 | 6.1 | 0.12 | 1.18 | 0.32 | 99 | 1015.1 |
| 20260506072507 | 44 | 27 | 2.6 | 6.1 | 0.12 | 1.17 | 0.31 | 99 | 1015.0 |
| 20260506072008 | 45 | 13 | 3.5 | 6.1 | 0.12 | 1.16 | 0.30 | 99 | 1015.0 |
| 20260506071505 | 45 | 31 | 3.5 | 4.3 | 0.11 | 1.14 | 0.28 | 99 | 1015.0 |
| 20260506071007 | 45 | 25 | 0.0 | 4.3 | 0.11 | 1.13 | 0.27 | 99 | 1015.0 |
| 20260506070507 | 44 | 4 | 0.9 | 5.2 | 0.10 | 1.12 | 0.26 | 99 | 1015.0 |
| 20260506062505 | 45 | 7 | 2.6 | 8.7 | 0.10 | 1.05 | 0.19 | 99 | 1014.8 |
| 20260506062004 | 45 | 15 | 4.3 | 8.7 | 0.09 | 1.04 | 0.18 | 99 | 1014.9 |
| 20260506061505 | 45 | 13 | 0.9 | 8.7 | 0.11 | 1.03 | 0.17 | 99 | 1014.9 |
| 20260506061004 | 46 | 11 | 1.7 | 8.7 | 0.10 | 1.02 | 0.16 | 99 | 1014.9 |
| 20260506060505 | 47 | 8 | 7.0 | 8.7 | 0.10 | 1.02 | 0.16 | 99 | 1014.9 |
| 20260506051032 | 48 | 13 | 0.0 | 5.2 | 0.06 | 0.92 | 0.06 | 99 | 1008.8 |
| 20260506050532 | 48 | 44 | 1.7 | 5.2 | 0.06 | 0.92 | 0.06 | 99 | 1008.9 |
| 20260506045031 | 48 | 342 | 0.9 | 4.3 | 0.07 | 0.91 | 0.05 | 99 | 1009.0 |
| 20260506044532 | 48 | 4 | 0.0 | 4.3 | 0.07 | 0.91 | 0.05 | 99 | 1008.7 |
| 20260506044037 | 48 | 11 | 0.0 | 5.2 | 0.07 | 0.90 | 0.04 | 99 | 1008.8 |
| 20260506043531 | 48 | 350 | 2.6 | 5.2 | 0.08 | 0.90 | 0.04 | 99 | 1008.8 |
| 20260506043031 | 48 | 44 | 1.7 | 5.2 | 0.07 | 0.89 | 0.03 | 99 | 1008.8 |
| 20260506042536 | 48 | 58 | 3.5 | 2.6 | 0.07 | 0.89 | 0.03 | 99 | 1008.8 |
| 20260506042031 | 49 | 3 | 0.0 | 2.6 | 0.05 | 0.87 | 0.01 | 99 | 1008.8 |
| 20260506041531 | 48 | 31 | 0.0 | 2.6 | 0.05 | 0.87 | 0.01 | 99 | 1008.9 |
| 20260506041036 | 48 | 8 | 0.0 | 7.0 | 0.04 | 0.86 | 0.00 | 99 | 1008.9 |
| 20260506040530 | 48 | 8 | 0.0 | 7.0 | 0.04 | 0.86 | 0.00 | 99 | 1008.9 |
| 20260506040031 | 49 | 3 | 0.0 | 7.0 | 0.04 | 0.86 | 0.00 | 99 | 1008.9 |
| 20260506035530 | 49 | 14 | 3.5 | 3.5 | 0.04 | 0.86 | 0.86 | 99 | 1008.9 |
| 20260506035032 | 49 | 20 | 0.0 | 2.6 | 0.02 | 0.84 | 0.84 | 99 | 1009.0 |
| 20260506034529 | 48 | 17 | 0.0 | 2.6 | 0.02 | 0.84 | 0.84 | 99 | 1009.0 |
| 20260506034030 | 49 | 354 | 0.0 | 5.2 | 0.01 | 0.83 | 0.83 | 99 | 1009.2 |
| 20260506033531 | 49 | 1 | 0.0 | 5.2 | 0.00 | 0.82 | 0.82 | 99 | 1009.1 |
| 20260506033029 | 49 | 335 | 0.9 | 5.2 | 0.00 | 0.82 | 0.82 | 99 | 1009.3 |
| 20260506032531 | 49 | 21 | 0.9 | 5.2 | 0.00 | 0.82 | 0.82 | 99 | 1009.4 |
| 20260506032029 | 49 | 328 | 2.6 | 6.1 | 0.01 | 0.82 | 0.82 | 99 | 1009.4 |
| 20260506031529 | 49 | 350 | 2.6 | 7.0 | 0.01 | 0.82 | 0.82 | 99 | 1009.6 |
| 20260506031035 | 49 | 342 | 0.9 | 7.0 | 0.03 | 0.82 | 0.82 | 99 | 1009.6 |
| 20260506030528 | 49 | 333 | 1.7 | 7.0 | 0.04 | 0.82 | 0.82 | 99 | 1009.7 |
| 20260506030030 | 49 | 11 | 5.2 | 5.2 | 0.05 | 0.82 | 0.82 | 99 | 1009.8 |
| 20260506025529 | 49 | 319 | 1.7 | 5.2 | 0.06 | 0.82 | 0.82 | 99 | 1009.8 |
| 20260506025028 | 49 | 349 | 0.9 | 6.1 | 0.07 | 0.82 | 0.82 | 99 | 1009.8 |
| 20260506024531 | 49 | 350 | 1.7 | 6.1 | 0.07 | 0.82 | 0.82 | 99 | 1009.7 |
| 20260506024028 | 49 | 20 | 2.6 | 6.1 | 0.08 | 0.82 | 0.82 | 99 | 1009.7 |
| 20260506023527 | 50 | 7 | 3.5 | 7.8 | 0.08 | 0.82 | 0.82 | 99 | 1009.6 |
| 20260506023034 | 50 | 11 | 0.0 | 7.8 | 0.09 | 0.82 | 0.82 | 99 | 1010.0 |
| 20260506022527 | 50 | 21 | 0.0 | 7.8 | 0.10 | 0.82 | 0.82 | 99 | 1009.6 |
| 20260506022030 | 50 | 31 | 5.2 | 6.1 | 0.09 | 0.81 | 0.81 | 99 | 1009.7 |
| 20260506021527 | 50 | 10 | 0.0 | 4.3 | 0.10 | 0.81 | 0.81 | 99 | 1009.7 |
| 20260506021030 | 50 | 325 | 0.0 | 1.7 | 0.10 | 0.79 | 0.79 | 99 | 1009.7 |
| 20260506020527 | 50 | 17 | 0.9 | 3.5 | 0.11 | 0.78 | 0.78 | 99 | 1009.6 |
| 20260506020026 | 50 | 30 | 0.9 | 3.5 | 0.12 | 0.77 | 0.77 | 99 | 1009.3 |
| 20260506015528 | 50 | 25 | 0.9 | 4.3 | 0.14 | 0.76 | 0.76 | 99 | 1009.2 |
| 20260506015026 | 50 | 359 | 1.7 | 4.3 | 0.15 | 0.75 | 0.75 | 99 | 1009.3 |
| 20260506014528 | 51 | 41 | 1.7 | 4.3 | 0.17 | 0.75 | 0.75 | 99 | 1009.2 |
| 20260506014028 | 50 | 250 | 0.0 | 4.3 | 0.19 | 0.74 | 0.74 | 99 | 1009.1 |
| 20260506013527 | 50 | 149 | 3.5 | 6.1 | 0.25 | 0.74 | 0.74 | 99 | 1008.9 |
| 20260506013025 | 50 | 350 | 1.7 | 6.1 | 0.24 | 0.73 | 0.73 | 99 | 1009.0 |
| 20260506012528 | 51 | 11 | 2.6 | 7.8 | 0.23 | 0.72 | 0.72 | 99 | 1008.9 |
| 20260506012025 | 51 | 3 | 2.6 | 7.8 | 0.23 | 0.72 | 0.72 | 99 | 1008.8 |
| 20260506011531 | 51 | 14 | 1.7 | 7.8 | 0.40 | 0.71 | 0.71 | 98 | 1008.8 |
| 20260506011024 | 51 | 30 | 1.7 | 7.0 | 0.38 | 0.69 | 0.69 | 98 | 1008.8 |
| 20260506010527 | 52 | 359 | 2.6 | 7.0 | 0.36 | 0.67 | 0.67 | 98 | 1008.8 |
| 20260506010028 | 52 | 345 | 1.7 | 6.1 | 0.34 | 0.65 | 0.65 | 98 | 1008.8 |
| 20260506005530 | 52 | 328 | 1.7 | 6.1 | 0.31 | 0.62 | 0.62 | 98 | 1008.8 |
| 20260506005024 | 52 | 304 | 5.2 | 5.2 | 0.29 | 0.60 | 0.60 | 98 | 1008.8 |
| 20260506004528 | 52 | 359 | 2.6 | 5.2 | 0.27 | 0.58 | 0.58 | 98 | 1008.5 |
| 20260506004024 | 52 | 0 | 0.0 | 5.2 | 0.24 | 0.55 | 0.55 | 98 | 1008.4 |
| 20260506003525 | 53 | 318 | 0.0 | 5.2 | 0.18 | 0.49 | 0.49 | 98 | 1008.5 |
| 20260506003027 | 53 | 347 | 2.6 | 3.5 | 0.21 | 0.49 | 0.49 | 98 | 1008.4 |
| 20260506002526 | 53 | 342 | 0.9 | 4.3 | 0.24 | 0.49 | 0.49 | 98 | 1008.2 |
| 20260506002023 | 53 | 77 | 0.9 | 4.3 | 0.24 | 0.49 | 0.49 | 98 | 1008.1 |
| 20260506001527 | 53 | 77 | 2.6 | 4.3 | 0.06 | 0.31 | 0.31 | 98 | 1008.1 |
| 20260506001023 | 53 | 101 | 0.9 | 4.3 | 0.06 | 0.31 | 0.31 | 98 | 1008.1 |
| 20260506000526 | 53 | 18 | 0.0 | 3.5 | 0.06 | 0.31 | 0.31 | 98 | 1008.1 |
| 20260506000022 | 53 | 18 | 0.0 | 4.3 | 0.06 | 0.31 | 0.31 | 98 | 1008.2 |
| 20260505235531 | 54 | 58 | 1.7 | 7.0 | 0.06 | 0.31 | 0.31 | 98 | 1008.2 |
| 20260505235022 | 54 | 340 | 0.9 | 7.0 | 0.07 | 0.31 | 0.31 | 97 | 1008.4 |
| 20260505234522 | 55 | 11 | 2.6 | 7.0 | 0.07 | 0.31 | 0.31 | 97 | 1008.4 |
| 20260505234023 | 56 | 359 | 3.5 | 6.1 | 0.07 | 0.31 | 0.31 | 97 | 1008.6 |
| 20260505233522 | 57 | 329 | 2.6 | 2.6 | 0.08 | 0.31 | 0.31 | 98 | 1008.3 |
| 20260505233030 | 57 | 318 | 1.7 | 2.6 | 0.06 | 0.28 | 0.28 | 97 | 1008.4 |
| 20260505232522 | 57 | 318 | 0.0 | 0.0 | 0.04 | 0.25 | 0.25 | 97 | 1008.2 |
| 20260505232025 | 57 | 318 | 0.0 | 1.7 | 0.05 | 0.25 | 0.25 | 97 | 1008.3 |
| 20260505231522 | 57 | 318 | 0.0 | 4.3 | 0.06 | 0.25 | 0.25 | 97 | 1008.4 |
| 20260505231022 | 57 | 318 | 0.0 | 4.3 | 0.08 | 0.25 | 0.25 | 97 | 1008.5 |
| 20260505230521 | 57 | 328 | 0.9 | 4.3 | 0.10 | 0.25 | 0.25 | 97 | 1008.4 |
| 20260505230021 | 57 | 14 | 1.7 | 1.7 | 0.14 | 0.25 | 0.25 | 97 | 1008.4 |
| 20260505225525 | 57 | 290 | 0.0 | 2.6 | 0.20 | 0.25 | 0.25 | 97 | 1008.5 |
| 20260505225020 | 57 | 290 | 0.0 | 2.6 | 0.20 | 0.24 | 0.24 | 97 | 1008.6 |
| 20260505224521 | 57 | 290 | 0.0 | 2.6 | 0.20 | 0.24 | 0.24 | 97 | 1008.6 |
| 20260505224022 | 57 | 336 | 0.0 | 1.7 | 0.20 | 0.24 | 0.24 | 97 | 1008.7 |
| 20260505223522 | 57 | 294 | 0.0 | 2.6 | 0.19 | 0.23 | 0.23 | 97 | 1008.7 |
| 20260505223020 | 58 | 298 | 0.9 | 2.6 | 0.18 | 0.22 | 0.22 | 97 | 1008.8 |
| 20260505222521 | 58 | 304 | 0.0 | 4.3 | 0.17 | 0.21 | 0.21 | 97 | 1008.7 |
| 20260505222021 | 58 | 288 | 2.6 | 6.1 | 0.16 | 0.20 | 0.20 | 97 | 1008.7 |
| 20260505221521 | 58 | 325 | 0.9 | 6.1 | 0.15 | 0.19 | 0.19 | 97 | 1008.8 |
| 20260505221020 | 58 | 293 | 1.7 | 6.1 | 0.13 | 0.17 | 0.17 | 97 | 1008.7 |
| 20260505220521 | 58 | 322 | 4.3 | 6.1 | 0.11 | 0.15 | 0.15 | 96 | 1008.9 |
| 20260505220019 | 58 | 319 | 1.7 | 5.2 | 0.07 | 0.11 | 0.11 | 96 | 1008.9 |
| 20260505215523 | 59 | 311 | 0.9 | 3.5 | 0.01 | 0.05 | 0.05 | 96 | 1008.5 |
| 20260505215019 | 59 | 297 | 0.0 | 0.0 | 0.00 | 0.04 | 0.04 | 96 | 1008.2 |
| 20260505214525 | 59 | 297 | 0.0 | 0.0 | 0.00 | 0.04 | 0.04 | 96 | 1008.1 |
| 20260505214018 | 59 | 297 | 0.0 | 0.0 | 0.00 | 0.04 | 0.04 | 96 | 1008.0 |
| 20260505213521 | 59 | 297 | 0.0 | 0.0 | 0.00 | 0.04 | 0.04 | 96 | 1008.1 |
| 20260505213018 | 59 | 297 | 0.0 | 0.0 | 0.00 | 0.04 | 0.04 | 96 | 1008.1 |
| 20260505212527 | 59 | 297 | 0.0 | 1.7 | 0.00 | 0.04 | 0.04 | 96 | 1008.2 |
| 20260505212018 | 59 | 297 | 0.0 | 1.7 | 0.00 | 0.04 | 0.04 | 96 | 1008.3 |
| 20260505211522 | 59 | 297 | 0.0 | 1.7 | 0.01 | 0.04 | 0.04 | 96 | 1008.3 |
| 20260505211018 | 59 | 304 | 0.0 | 1.7 | 0.01 | 0.04 | 0.04 | 96 | 1008.3 |
| 20260505210518 | 59 | 316 | 0.0 | 1.7 | 0.01 | 0.04 | 0.04 | 96 | 1008.3 |
| 20260505210047 | 59 | 316 | 0.0 | 2.6 | 0.01 | 0.04 | 0.04 | 96 | 1008.3 |
| 20260505205517 | 59 | 316 | 0.0 | 2.6 | 0.01 | 0.04 | 0.04 | 96 | 1008.4 |
| 20260505205020 | 59 | 301 | 0.0 | 2.6 | 0.01 | 0.04 | 0.04 | 96 | 1008.5 |
| 20260505204517 | 59 | 307 | 1.7 | 2.6 | 0.02 | 0.04 | 0.04 | 95 | 1008.5 |
| 20260505204025 | 59 | 305 | 0.0 | 2.6 | 0.02 | 0.04 | 0.04 | 95 | 1008.5 |
| 20260505203519 | 59 | 281 | 0.0 | 2.6 | 0.03 | 0.04 | 0.04 | 95 | 1008.6 |
| 20260505203022 | 59 | 311 | 0.0 | 6.1 | 0.03 | 0.04 | 0.04 | 95 | 1008.5 |
| 20260505202519 | 59 | 319 | 0.0 | 6.1 | 0.03 | 0.04 | 0.04 | 95 | 1008.6 |
| 20260505202047 | 59 | 285 | 1.7 | 6.1 | 0.03 | 0.04 | 0.04 | 95 | 1008.6 |
| 20260505201518 | 59 | 347 | 2.6 | 5.2 | 0.02 | 0.03 | 0.03 | 94 | 1008.6 |
| 20260505201020 | 59 | 312 | 4.3 | 5.2 | 0.02 | 0.03 | 0.03 | 94 | 1008.8 |
| 20260505200520 | 59 | 291 | 1.7 | 5.2 | 0.02 | 0.03 | 0.03 | 93 | 1008.7 |
| 20260505200046 | 59 | 311 | 2.6 | 4.3 | 0.02 | 0.03 | 0.03 | 93 | 1008.6 |
| 20260505195516 | 60 | 301 | 0.9 | 5.2 | 0.02 | 0.03 | 0.03 | 92 | 1008.7 |
| 20260505195016 | 60 | 304 | 0.9 | 6.1 | 0.02 | 0.03 | 0.03 | 91 | 1008.8 |
| 20260505194048 | 61 | 346 | 0.0 | 7.0 | 0.01 | 0.02 | 0.02 | 88 | 1008.8 |
| 20260505193545 | 61 | 326 | 5.2 | 7.0 | 0.00 | 0.01 | 0.01 | 87 | 1009.0 |
| 20260505193050 | 61 | 326 | 2.6 | 7.0 | 0.00 | 0.01 | 0.01 | 86 | 1008.9 |
| 20260505192544 | 61 | 291 | 2.6 | 7.0 | 0.00 | 0.01 | 0.01 | 85 | 1008.8 |
| 20260505192047 | 62 | 304 | 1.7 | 7.8 | 0.00 | 0.01 | 0.01 | 85 | 1008.8 |
| 20260505191544 | 62 | 301 | 0.0 | 7.8 | 0.00 | 0.01 | 0.01 | 85 | 1008.7 |
| 20260505191046 | 62 | 307 | 4.3 | 7.8 | 0.00 | 0.01 | 0.01 | 84 | 1008.8 |
| 20260505190544 | 62 | 300 | 2.6 | 7.8 | 0.00 | 0.01 | 0.01 | 85 | 1008.8 |
| 20260505190044 | 62 | 316 | 5.2 | 7.8 | 0.00 | 0.01 | 0.01 | 84 | 1008.8 |
| 20260505185546 | 63 | 326 | 0.9 | 6.1 | 0.00 | 0.01 | 0.01 | 83 | 1008.9 |
| 20260505185043 | 63 | 335 | 2.6 | 4.3 | 0.00 | 0.01 | 0.01 | 82 | 1008.8 |
| 20260505184547 | 64 | 270 | 0.0 | 3.5 | 0.00 | 0.01 | 0.01 | 80 | 1008.7 |
| 20260505184043 | 65 | 291 | 0.0 | 4.3 | 0.00 | 0.01 | 0.01 | 76 | 1008.8 |
| 20260505183546 | 65 | 277 | 0.9 | 4.3 | 0.00 | 0.01 | 0.01 | 73 | 1008.6 |
| 20260505183043 | 66 | 248 | 0.0 | 4.3 | 0.00 | 0.01 | 0.01 | 72 | 1008.7 |
| 20260505182544 | 66 | 297 | 0.0 | 3.5 | 0.00 | 0.01 | 0.01 | 73 | 1008.8 |
| 20260505182043 | 65 | 262 | 0.0 | 7.8 | 0.00 | 0.01 | 0.01 | 73 | 1008.8 |
| 20260505181543 | 65 | 256 | 0.0 | 7.8 | 0.00 | 0.01 | 0.01 | 75 | 1008.8 |
| 20260505181044 | 64 | 242 | 0.0 | 7.8 | 0.00 | 0.01 | 0.01 | 75 | 1008.9 |
| 20260505180542 | 64 | 301 | 0.0 | 4.3 | 0.00 | 0.01 | 0.01 | 75 | 1009.0 |
| 20260505180048 | 64 | 314 | 0.9 | 4.3 | 0.00 | 0.01 | 0.01 | 75 | 1009.0 |
| 20260505175542 | 64 | 283 | 0.9 | 7.0 | 0.00 | 0.01 | 0.01 | 75 | 1009.0 |
| 20260505175052 | 64 | 297 | 0.9 | 7.0 | 0.00 | 0.01 | 0.01 | 75 | 1008.9 |
| 20260505174541 | 64 | 266 | 0.0 | 7.0 | 0.00 | 0.01 | 0.01 | 75 | 1008.9 |
| 20260505174045 | 64 | 291 | 0.0 | 6.1 | 0.00 | 0.01 | 0.01 | 76 | 1008.8 |
| 20260505173541 | 64 | 291 | 0.0 | 7.0 | 0.00 | 0.01 | 0.01 | 76 | 1008.9 |
| 20260505173044 | 64 | 325 | 0.0 | 7.0 | 0.00 | 0.01 | 0.01 | 76 | 1009.0 |
| 20260505172541 | 64 | 325 | 0.0 | 7.0 | 0.00 | 0.01 | 0.01 | 75 | 1009.0 |
| 20260505172045 | 64 | 294 | 2.6 | 7.8 | 0.00 | 0.01 | 0.01 | 75 | 1009.0 |
| 20260505171543 | 64 | 259 | 0.0 | 7.8 | 0.00 | 0.01 | 0.01 | 75 | 1009.0 |
| 20260505171046 | 64 | 293 | 0.0 | 11.3 | 0.00 | 0.01 | 0.01 | 74 | 1009.0 |
| 20260505170541 | 64 | 308 | 0.9 | 13.0 | 0.00 | 0.01 | 0.01 | 74 | 1009.0 |
| 20260505170046 | 64 | 304 | 4.3 | 13.0 | 0.00 | 0.01 | 0.01 | 73 | 1009.0 |
| 20260505165542 | 64 | 308 | 2.6 | 13.0 | 0.00 | 0.01 | 0.01 | 73 | 1009.0 |
| 20260505165047 | 65 | 322 | 3.5 | 11.3 | 0.00 | 0.01 | 0.01 | 72 | 1009.0 |
| 20260505164543 | 65 | 294 | 5.2 | 11.3 | 0.00 | 0.01 | 0.01 | 71 | 1009.0 |
| 20260505164042 | 66 | 260 | 0.9 | 11.3 | 0.00 | 0.01 | 0.01 | 70 | 1009.0 |
| 20260505163541 | 66 | 285 | 0.9 | 11.3 | 0.00 | 0.01 | 0.01 | 69 | 1009.0 |
| 20260505163047 | 66 | 298 | 2.6 | 11.3 | 0.00 | 0.01 | 0.01 | 68 | 1008.9 |
| 20260505162608 | 67 | 290 | 4.3 | 8.7 | 0.00 | 0.01 | 0.01 | 67 | 1008.8 |
| 20260505162041 | 67 | 281 | 1.7 | 7.8 | 0.00 | 0.01 | 0.01 | 66 | 1008.9 |
| 20260505161539 | 67 | 287 | 7.0 | 9.6 | 0.00 | 0.01 | 0.01 | 66 | 1008.8 |
| 20260505161043 | 67 | 290 | 2.6 | 10.4 | 0.00 | 0.01 | 0.01 | 66 | 1008.8 |
| 20260505160539 | 67 | 281 | 3.5 | 15.6 | 0.00 | 0.01 | 0.01 | 65 | 1008.9 |